Погода в Гонолулу

США     21°20′15″N   157°55′07″W
темп.,
°C
ветер,
м/с
пор.,
м/с
влажн.,
%
обл.,
%
осадки,
мм/ч
давл.,
гПа
погр.,
м
15 мая, сб
сб1523:00+24всв1012730 0.0 10211010
02:00+23всв911730 0.0 1019958
05:00+23всв810720 0.0 1019975
08:00+24всв1011680 0.0 10201072
11:00+25всв910643 0.0 10211261
14:00+25всв1010590 0.1 10201246
17:00+25всв1111650 0.0 10181337
20:00+24св1012660 0.0 10201112
16 мая, вс
вс1623:00+23всв1012730 0.0 10201151
02:00+23всв911745 0.1 10191049
05:00+23св911710 0.1 10181000
08:00+24всв1011693 0.1 10201187
11:00+25всв1112630 0.1 10191413
14:00+25всв1011600 0.1 10181388
17:00+25всв1011610 0.0 10171354
20:00+24всв1011700 0.0 10181213
17 мая, пн
пн1723:00+24всв9117119 0.1 10191180
02:00+23всв911690 0.1 10171027
05:00+23всв810700 0.0 1017994
08:00+24всв1012680 0.0 10191245
11:00+25всв1112670 0.0 10181375
14:00+25всв1111630 0.0 10171205
17:00+25всв1011662 0.0 10161171
20:00+24всв1012720 0.0 10181119
18 мая, вт
вт1823:00+24всв1113730 0.0 10191072
02:00+23всв1012700 0.0 1017934
05:00+23всв911741 0.0 1017991
08:00+24всв1112670 0.0 10181062
11:00+25в1111650 0.0 10181293
14:00+26всв1110630 0.0 10171238
17:00+25всв1011610 0.0 1017970
20:00+24всв1112730 0.0 1018987
19 мая, ср
ср1923:00+24в1011750 0.0 1019979
02:00+23всв910750 0.1 1018902
05:00+23всв1011751 0.0 1017914
08:00+24всв1012660 0.0 1018993
11:00+25в910610 0.0 10181140
14:00+26в98640 0.0 10171205
17:00+25всв109674 0.0 10171033
20:00+24всв1011701 0.0 1018902